www.pogodaiklimat.ru

Погода и климат >> Архив погоды >> Россия >> Краснодарский край >> Лабинск


ПОГОДА в Лабинске

  • Прогноз погоды в Лабинске
  • Монитор погоды в Лабинске

АРХИВ ПОГОДЫ в Лабинске

Время (UTC), дата Ветер
(напр.,м/с)
 
Видим.   Явления Облачность Т
(С)
Тd
(С)
f
(%)
Тe
(С)
Тes
(С)
Комфортность P
(гПа)
Po
(гПа)
Тmin
(С)
Tmax
(С)
R
(мм)
R24
(мм)
S
(см)
09 12.02 В 2 50 км 10/0
[Ac trans Ci sp]
+9.6 +3.1 64 +8 +12 1016.6 984.9
12 12.02 СВ 2 10 км 10/0
[Ac trans Ci sp]
+14.2 +2.1 44 +14 +16 1014.7 983.6
15 12.02 СВ 2 10 км 10/0
[Ac trans Ci sp]
+7.8 +3.2 73 +6 +6 1015.9 984.0 +14.3
18 12.02 В 3 10 км {метель} 10/0
[Ac trans Ci sp]
+4.2 +0.6 77 +1 +1 1017.7 985.3
21 12.02 В 2 10 км ясно +0.9 -0.8 88 -3 -3 1018.8 986.0
00 13.02 ЮВ 2 10 км ясно +0.9 -1.0 87 -3 -3 1019.1 986.3
03 13.02 ЮВ 2 10 км ясно +0.8 -1.9 82 -3 -3 1019.8 986.9 -0.4
06 13.02 ЮВ 2 50 км 4/0
[Ci fib]
+3.4 -0.7 74 +1 +2 1021.2 988.6
09 13.02 Ю 2 50 км 4/0
[Ci fib]
+14.0 -0.7 36 +14 +20 1019.9 988.5
12 13.02 СВ 2 10 км 8/0
[Ci fib]
+16.8 -3.3 25 +17 +20 1018.8 987.7
15 13.02 З 3 10 км 8/0
[Ac trans Ci fib]
+9.3 +2.3 62 +7 +7 1021.5 989.6 +17.3
18 13.02 З 2 10 км 8/0
[Ac trans Ci fib]
+5.8 +3.6 86 +3 +3 1023.4 991.0
21 13.02 З 3 10 км 10/0 1000 м
[Ac trans]
+4.7 +2.4 85 +1 +1 1024.5 992.0
00 14.02 З 1 10 км 10/4 1000 м
[Sc Ac trans]
+3.0 +1.6 91 +1 +1 1024.8 992.0
03 14.02 штиль 0 10 км 10/10 1000 м
[Sc]
+2.3 +1.3 93 +1 +1 1024.5 991.7 +2.3
06 14.02 С 2 1000 м слаб. ливневой дождь 10/10 600 м
[Cb cap]
+2.1 +1.2 94 -1 -1 1025.3 992.4 +1.9
09 14.02 СВ 2 4000 м {ливн. осадки} 10/10 600 м
[Sc]
+2.5 +1.1 90 -1 -1 1024.7 991.9
12 14.02 С 3 4000 м слаб. ливневой дождь 10/10 600 м
[Cb cap]
+2.8 +1.1 89 -1 -1 1023.3 990.5
15 14.02 СВ 3 4000 м дымка {ливн. осадки} 10/10 600 м
[Sc]
+2.3 +0.4 87 -2 -2 1022.7 989.9 +3.6 0.3
18 14.02 СВ 4 10 км {ливн. осадки} 10/10 1000 м
[Sc]
+2.0 -0.6 83 -3 -3 1022.6 989.8
21 14.02 В 3 10 км 10/10 1000 м
[Sc]
+1.0 -1.6 83 -3 -3 1022.4 989.5
00 15.02 СВ 3 10 км 10/10 1000 м
[Sc]
+1.0 -1.5 83 -3 -3 1022.6 989.7
03 15.02 СВ 3 10 км 9/6 1000 м
[Sc Ac trans Ci fib]
+1.3 -1.4 82 -3 -3 1022.4 989.5 +0.3
06 15.02 СВ 3 4000 м дымка 10/10 300 м
[St]
+1.7 -0.4 86 -3 -3 1023.6 990.7
09 15.02 В 4 10 км 10/8 600 м
[Cb cap Ac trans Ci sp]
+2.8 -0.6 78 -2 -1 1023.5 990.7
12 15.02 СВ 3 10 км 8/8 1000 м
[Sc]
+4.5 -1.0 67 +1 +2 1022.1 989.6
15 15.02 СВ 3 10 км 10/10 300 м
[St]
+2.3 -2.0 73 -2 -2 1023.1 990.3 +6.0
18 15.02 СВ 3 10 км 10/10 600 м
[Sc]
+0.7 -1.9 83 -4 -4 1023.1 990.2
21 15.02 СЗ 1 10 км 4/4 300 м
[St]
-0.3 -2.7 84 -2 -2 1022.0 988.9
00 16.02 С 1 1000 м дымка 10/10 300 м
[St]
-4.5 -5.3 94 -7 -7 1022.4 988.8
03 16.02 ЮВ 1 10 км ясно -5.4 -6.4 93 -8 -8 1022.5 988.8 -5.4
06 16.02 Ю 1 10 км 10/0
[Ci fib]
-0.5 -1.5 93 -3 -1 1022.5 989.4 -5.7
09 16.02 З 4 50 км 10/3 1000 м
[Sc Ac und]
+3.1 -1.3 73 -1 -0 1021.6 989.0
12 16.02 З 5 10 км 10/5 1000 м
[Sc Ac und]
+2.2 -3.9 64 -3 -3 1020.5 987.8
15 16.02 З 5
{10}
10 км 10/10 1000 м
[Sc]
+1.0 -2.8 76 -5 -5 1021.7 988.8 +3.3
18 16.02 З 5-10
{10}
10 км 10/10 1000 м
[Sc]
+0.6 -1.6 85 -5 -5 1022.4 989.5
21 16.02 З 5
{10}
10 км 10/0
[Ac und]
+0.5 -1.1 89 -6 -6 1022.6 989.6
00 17.02 З 6
{11}
10 км 10/0
[Ac und]
+0.4 -0.8 92 -6 -6 1022.1 989.1
03 17.02 З 6 10 км 10/0
[Ac und]
+1.1 -1.7 82 -5 -5 1021.8 988.9 +0.3
06 17.02 З 4
{10}
4000 м 10/10 600 м
[Sc]
+1.3 +0.1 92 -4 -4 1022.1 989.2
09 17.02 З 5
{10}
10 км 10/10 600 м
[Sc]
+6.3 +1.9 73 +2 +2 1019.9 987.7
12 17.02 З 8-11
{14}
10 км 3/1 600 м
[Cu Sc Ci fib]
+10.4 +0.4 50 +7 +7 1016.7 985.0
15 17.02 З 5
{12}
10 км 10/4 600 м
[Sc Ac trans Ci fib]
+9.0 -2.3 45 +6 +6 1015.4 983.6 +10.7
18 17.02 З 6
{10}
10 км 10/3 1000 м
[Sc Ac trans Ci fib]
+8.2 -1.9 49 +5 +5 1014.2 982.4
21 17.02 ЮЗ 7-11
{12}
10 км 10/3 1000 м
[Sc Ac trans Ci fib]
+8.3 -2.1 48 +5 +5 1012.7 980.9
00 18.02 З 7-13
{14}
10 км 3/0
[Ci fib]
+6.6 -1.0 58 +2 +2 1012.1 980.2
03 18.02 З 7-12
{13}
10 км 4/0
[Ci fib]
+5.1 +0.9 74 -0 -0 1011.2 979.1 +4.9
06 18.02 ЮЗ 8-11
{14}
50 км 10/8 1000 м
[Sc Ac trans Ci sp]
+7.2 -0.8 57 +3 +3 1011.8 979.9 +4.9
09 18.02 З 7-13
{16}
4000 м слаб. ливневой дождь 10/10 600 м
[Cb cap]
+3.4 +1.7 89 -3 -3 1014.3 981.9
12 18.02 З 7-10
{13}
4000 м дымка {ливн. осадки} 10/10 300 м
[Sc diur, vesp]
+5.6 +1.3 74 +1 +1 1013.8 981.7
15 18.02 З 5
{12}
10 км 10/3 1000 м
[Sc diur, vesp Ac cuf Ci sp]
+3.5 -3.0 62 -1 -1 1016.1 983.7 +7.4 0.5
18 18.02 З 2 10 км 8/3 1000 м
[Sc Ac trans Ci sp]
+1.0 -3.2 74 -2 -2 1019.1 986.3
21 18.02 СЗ 1 10 км 8/8 1000 м
[Sc]
-0.7 -3.9 79 -3 -3 1020.9 987.8
00 19.02 З 1 10 км 5/0
[Ac trans]
-3.9 -6.6 81 -6 -6 1022.3 988.8
03 19.02 штиль 0 10 км ясно -6.4 -7.6 91 -7 -7 1024.1 990.2 -6.5
06 19.02 штиль 0 50 км ясно -2.1 -6.1 74 -3 0 1025.8 992.3 -7.6

 

Местоположение метеостанции Лабинск (Краснодарский край, Россия): широта 44.67 долгота 40.75 высота над уровнем моря 264 м.

В архиве по умолчанию представлена погода в Лабинске за последнюю неделю. Архивные данные за месяц целиком и за предыдущие месяцы, начиная с января 2011 года, Вы можете получить, выбрав интересующий диапазон дат из раскрывающегося списка и нажав кнопку "Ввод!".


*Определитесь, кто Вы:
робот инопланетянин человек

Внимание! Время в таблицах - всемирное. Для получения местного времени необходимо прибавить поправку, которая равна 3 ч.

Смотрите также архив погоды в соседних городах и на ближайших метеорологических станциях:

Погода в Дондуковской (Адыгея, Россия) (38 км)
Погода в Армавире (Краснодарский край, Россия) (45 км)
Погода в Майкопе (Адыгея, Россия) (53 км)
Погода в Шунтуке (Адыгея, Россия) (55 км)
Погода в Псебае (Краснодарский край, Россия) (60 км)
Погода в Отрадной (Краснодарский край, Россия) (65 км)
Погода в Белореченске (Краснодарский край, Россия) (68 км)
Погода в Кропоткине (Краснодарский край, Россия) (86 км)
Погода в Гузерипле (Адыгея, Россия) (89 км)
Погода в Невинномысске (Ставропольский край, Россия) (97 км)

Пояснения к столбцам:

Ветер - указаны скорость ветра в м/с - средняя за 10 мин, порывы в срок и между сроками (в фигурных скобках) и направление, откуда дует ветер: С - северный, СВ - северо-восточный, В - восточный, ЮВ - юго-восточный, Ю - южный, ЮЗ - юго-западный, З - западный, СЗ - северо-западный.
Видимость - горизонтальная дальность видимости в метрах или километрах. При видимости от 1 до 10 км при отсутствии осадков обычно наблюдается дымка, при ухудшении видимости до 1 км и менее - туман. В сухую погоду видимость может ухудшаться дымом, пылью или мглою.
Явления - указаны атмосферные явления, наблюдавшиеся в срок или в последний час перед сроком; фигурными скобками обозначены явления, наблюдавшиеся между сроками (за 1-3 часа до срока); квадратными скобками обозначены град или гололедные отложения с указанием их диаметра в мм.
Облачность - указаны через наклонную черту общая и нижняя облачность в баллах и высота нижней границы облаков в метрах; квадратными скобками обозначены формы облаков: Ci - перистые, Cs - перисто-слоистые, Cc - перисто-кучевые, Ac - высококучевые, As - высокослоистые, Sc - слоисто-кучевые, Ns - слоисто-дождевые, Cu - кучевые, Cb - кучево-дождевые. Подробнее классификацию облаков см. в Атласе облаков (PDF).
T - Температура воздуха - температура, измеренная на высоте 2 м над землей.
Td - Температура точки росы - температура, при понижении до которой содержащийся в воздухе водяной пар достигнет насыщения.
f - Относительная влажность воздуха - влажноcть воздуха, измеренная на высоте 2 м над землей.
Te - Эффективная температура - температура, которую ощущает одетый по сезону человек в тени. Характеристика душности погоды. При расчете учитывается влияние влажности воздуха и скорости ветра на теплоощущения человека.
Tes - Эффективная температура на солнце - температура, которую ощущает человек, с поправкой на солнечный нагрев. Характеристика знойности погоды. Зависит от высоты солнца над горизонтом, облачности и скорости ветра. Ночью, в пасмурную погоду, а также при ветре 12 м/с и более поправка равна нулю.
P - Атмосферное давление - приведенное к уровню моря атмосферное давление.
Po - Атмосферное давление - измеренное на уровне метеостанции атмосферное давление.
Tmin - Минимальная температура - минимум температуры воздуха на высоте 2 м над землей.
Tmax - Максимальная температура - максимум температуры воздуха на высоте 2 м над землей.
R - Количество осадков - Количество выпавших осадков за период времени, мм. При наведении курсора мыши на число - период времени, за который выпало указанное количество осадков.
R24 - Количество осадков - Количество выпавших осадков за 24 часа, мм.
S - Снежный покров - Высота снежного покрова, см. При наведении курсора мыши на число - состояние снежного покрова и степень покрытия местности в баллах.